Location: Unspecified
(0.0000°N, 0.0000°E)
Time: 10:32:30
(UTC+00:00)

SRMSAT - Pass Details

Date: 03 April 2019
Orbit: 849 x 865 km, 20.0° (Epoch: 26 April)

Event Time Altitude Azimuth Distance (km) Brightness Sun altitude
Rises 19:01:02 0° 242° (WSW) 3,424 ? -14.4°
Reaches altitude 10° 19:03:38 10° 239° (WSW) 2,485 ? -15.0°
Maximum altitude 19:09:32 61° 159° (SSE) 962 ? -16.5°
Enters shadow 19:12:40 28° 88° (E) 1,552 ? -17.3°
